{"data":{"norad_id":57869,"epoch":"2026-09-20T16:44:13.484256Z","epoch_age_seconds":117523,"freshness":"FRESH","line1":"1 57869U 23144F   26263.69737829  .00000128  00000+0  14167-4 0  9992","line2":"2 57869  42.9998 263.6624 0000798 270.3095  89.7666 15.27577596167423","mean_motion":15.27577596,"eccentricity":7.98e-5,"inclination_deg":42.9998,"raan_deg":263.6624,"arg_perigee_deg":270.3095,"mean_anomaly_deg":89.7666,"bstar":1.4167e-5,"rev_number":16742,"period_min":94.26689706439,"perigee_km":482.50877126503,"apogee_km":483.60381771483,"semimajor_km":6861.1932944899,"source":"CELESTRAK","updated_at":"2026-09-21T09:00:33.716735Z"}}